Raleigh-Durham Airport, NC

11:44 PM EDT on April 24, 2017 (GMT -0400)
Raleigh-Durham International

Weather History for KRDU - February, 2012

Change the Weather History Date:

Tuesday, February 14, 2012

  Actual Average Record
Temperature  
Mean Temperature 50 °F 44 °F  
Max Temperature 60 °F 55 °F 78 °F (1949)
Min Temperature 39 °F 34 °F -2 °F (1899)
Degree Days  
Heating Degree Days 15 21  
Month to date heating degree days 297 306  
Since 1 July heating degree days 1924 2303  
Cooling Degree Days 0 0  
Month to date cooling degree days 0 0  
Year to date cooling degree days 0 0  
Moisture  
Dew Point 30 °F    
Average Humidity 47    
Maximum Humidity 63    
Minimum Humidity 31    
Precipitation  
Precipitation T in 0.11 in 2.29 in (1922)
Month to date precipitation 0.40 1.54  
Year to date precipitation 2.36 5.04  
Snow  
Snow 0.00 in 0.10 in 6.00 in (1913)
Month to date snowfall 0.0 1.1  
Since 1 July snowfall 0.0 4.7  
Snow Depth 0.00 in    
Sea Level Pressure  
Sea Level Pressure 30.08 in    
Wind  
Wind Speed 9 mph (SW)    
Max Wind Speed 23 mph    
Max Gust Speed 28 mph    
Visibility 10 miles    
Events Rain    
T = Trace of Precipitation, MM = Missing Value Source: NWS Daily Summary

Daily Weather History Graph

Daily Weather History Graph

Search for Another Location

Airport or City:

Trip Planner

Search our weather history database for the weather conditions in past years. The results will help you decide how hot, cold, wet, or windy it might be!

Date:

Astronomy

Feb. 14, 2012 Rise Set
Actual Time 7:03 AM EST 5:55 PM EST
Civil Twilight 6:37 AM EST 6:21 PM EST
Nautical Twilight 6:07 AM EST 6:51 PM EST
Astronomical Twilight 5:37 AM EST 7:21 PM EST
Moon 12:42 AM EST (2/14) 11:03 AM EST (2/14)
Length of Visible Light 11h 43m
Length of Day
10h 51m
Waning Gibbous, 50% of the Moon is Illuminated
Feb 14
Waning Gibbous
Feb 14
Last Quarter
Feb 21
New
Feb 29
First Quarter
Mar 8
Full

Hourly Weather History & Observations

Time (EST) Temp. Windchill Dew Point Humidity Pressure Visibility Wind Dir Wind Speed Gust Speed Precip Events Conditions
12:51 AM 43.0 °F 38.8 °F 17.1 °F 35% 30.13 in 10.0 mi SSW 6.9 mph - N/A   Mostly Cloudy
1:51 AM 42.1 °F 37.7 °F 19.0 °F 40% 30.12 in 10.0 mi SW 6.9 mph - N/A   Mostly Cloudy
2:51 AM 41.0 °F 36.4 °F 21.9 °F 47% 30.11 in 10.0 mi SSW 6.9 mph - N/A   Overcast
3:51 AM 41.0 °F 37.1 °F 23.0 °F 49% 30.10 in 10.0 mi SW 5.8 mph - N/A   Overcast
4:51 AM 42.1 °F 37.7 °F 24.1 °F 49% 30.09 in 10.0 mi SSW 6.9 mph - N/A   Overcast
5:51 AM 42.1 °F 39.2 °F 24.1 °F 49% 30.10 in 10.0 mi SSW 4.6 mph - N/A   Overcast
6:51 AM 42.1 °F 37.1 °F 24.1 °F 49% 30.11 in 10.0 mi SSW 8.1 mph - N/A   Overcast
7:51 AM 42.1 °F 37.1 °F 25.0 °F 51% 30.14 in 10.0 mi SW 8.1 mph - N/A   Overcast
8:51 AM 45.0 °F 40.1 °F 28.0 °F 52% 30.14 in 10.0 mi SSW 9.2 mph - N/A   Overcast
9:51 AM 48.9 °F - 30.9 °F 50% 30.12 in 10.0 mi SSW 12.7 mph - 0.00 in   Overcast
10:51 AM 48.9 °F - 32.0 °F 52% 30.12 in 10.0 mi WSW 11.5 mph - 0.00 in Rain Light Rain
11:51 AM 52.0 °F - 32.0 °F 47% 30.09 in 10.0 mi SW 15.0 mph 21.9 mph 0.00 in   Mostly Cloudy
12:51 PM 53.1 °F - 32.0 °F 45% 30.05 in 10.0 mi WSW 12.7 mph 21.9 mph 0.00 in Rain Light Rain
1:51 PM 55.9 °F - 32.0 °F 40% 30.02 in 10.0 mi WSW 15.0 mph - 0.00 in   Mostly Cloudy
2:51 PM 57.9 °F - 30.9 °F 36% 30.00 in 10.0 mi WSW 16.1 mph 23.0 mph N/A   Mostly Cloudy
3:51 PM 57.0 °F - 32.0 °F 39% 30.00 in 10.0 mi SW 16.1 mph - N/A   Mostly Cloudy
4:51 PM 55.9 °F - 33.1 °F 42% 30.02 in 10.0 mi WSW 6.9 mph 16.1 mph N/A   Mostly Cloudy
5:51 PM 54.0 °F - 37.0 °F 53% 30.02 in 10.0 mi WSW 8.1 mph - 0.00 in Rain Light Rain
6:51 PM 53.1 °F - 37.9 °F 57% 30.04 in 10.0 mi SW 6.9 mph - 0.00 in   Overcast
7:51 PM 53.1 °F - 39.0 °F 59% 30.05 in 10.0 mi WSW 10.4 mph - N/A   Overcast
8:51 PM 53.1 °F - 39.0 °F 59% 30.05 in 10.0 mi WSW 4.6 mph - N/A   Overcast
9:51 PM 51.1 °F - 39.0 °F 63% 30.06 in 10.0 mi WSW 6.9 mph - N/A   Overcast
10:51 PM 51.1 °F - 39.0 °F 63% 30.07 in 10.0 mi WSW 5.8 mph - N/A   Overcast
11:51 PM 51.1 °F - 39.0 °F 63% 30.07 in 10.0 mi WSW 5.8 mph - N/A   Overcast